Date String (YYYY-MM-DD hh:mm:ss) UTC,Instrument flags,Ambient pressure (hPa),Sample flow (lpm),Bypass flow (lpm),Sample temperature (°C),Ambient temperature (°C),ASC tube jacket temperature (°C),LED temperature (°C),Box temperature (°C),Sample RH (%),Span deviation,Mass concentration (μg/m³),Mass concentration (μg/m³),Mass concentration (μg/m³)
DateTimeUTC,F1_M11,P_M11,Q1_M11,Q2_M11,T1_M11,T2_M11,T3_M11,T4_M11,T5_M11,U1_M11,ZSPAN_M11,X0_M11,X2_M11,X1_M11
2021-11-11 19:00:00,,0825.4,5.01,0.00,25.0,24.0,00.0,34.1,26.7,09.4,0000.0,0005.91,0002.77,0001.68
2021-11-11 19:01:00,,0825.3,5.00,0.00,25.0,24.0,00.0,34.1,26.7,09.3,0000.0,0005.48,0002.74,0001.67
2021-11-11 19:02:00,,0825.3,5.00,0.00,25.0,24.0,00.0,34.1,26.7,09.4,0000.0,0005.18,0002.66,0001.67
2021-11-11 19:03:00,,0825.3,4.99,0.00,25.0,24.0,00.0,34.1,26.8,09.4,0000.0,0005.20,0002.68,0001.66
2021-11-11 19:04:00,,0825.3,5.00,0.00,25.0,24.0,00.0,34.1,26.8,09.4,0000.0,0005.06,0002.65,0001.65
2021-11-11 19:05:00,,0825.3,5.01,0.00,25.0,23.9,00.0,34.1,26.7,09.4,0000.0,0005.04,0002.58,0001.61
2021-11-11 19:06:00,,0825.3,5.00,0.00,25.0,23.9,00.0,34.1,26.7,09.4,0000.0,0005.08,0002.52,0001.57
2021-11-11 19:07:00,,0825.3,5.00,0.00,25.0,24.0,00.0,34.1,26.7,09.4,0000.0,0005.19,0002.52,0001.54
2021-11-11 19:08:00,,0825.3,5.01,0.00,25.0,23.9,00.0,34.1,26.7,09.4,0000.0,0005.27,0002.54,0001.54
2021-11-11 19:09:00,,0825.3,5.01,0.00,25.0,24.0,00.0,34.1,26.7,09.5,0000.0,0005.68,0002.57,0001.53
2021-11-11 19:10:00,,0825.2,4.99,0.00,25.0,24.0,00.0,34.1,26.7,09.3,0000.0,0005.72,0002.58,0001.53
2021-11-11 19:11:00,,0825.2,5.00,0.00,25.0,24.0,00.0,34.1,26.7,09.3,0000.0,0005.76,0002.43,0001.51
2021-11-11 19:12:00,,0825.3,5.01,0.00,25.0,24.0,00.0,34.1,26.7,10.1,0000.0,0006.02,0002.37,0001.48
2021-11-11 19:13:00,,0825.3,5.00,0.00,25.0,24.0,00.0,34.1,26.7,10.2,0000.0,0006.17,0002.44,0001.49
2021-11-11 19:14:00,,0825.3,5.00,0.00,25.0,24.0,00.0,34.1,26.8,10.3,0000.0,0006.98,0002.44,0001.50
2021-11-11 19:15:00,,0825.2,5.00,0.00,25.0,24.0,00.0,34.1,26.8,10.3,0000.0,0007.32,0002.36,0001.50
2021-11-11 19:16:00,,0825.1,5.00,0.00,25.0,24.0,00.0,34.1,26.8,10.2,0000.0,0007.91,0002.38,0001.51
2021-11-11 19:17:00,,0825.1,4.99,0.00,25.1,24.0,00.0,34.1,26.8,10.4,0000.0,0007.87,0002.40,0001.54
2021-11-11 19:18:00,,0825.0,4.99,0.00,25.1,24.0,00.0,34.1,26.8,09.9,0000.0,0007.99,0002.49,0001.56
2021-11-11 19:19:00,,0825.0,5.01,0.00,25.1,24.0,00.0,34.1,26.8,09.9,0000.0,0007.96,0002.49,0001.56
2021-11-11 19:20:00,,0825.2,5.00,0.00,25.1,23.9,00.0,34.1,26.8,10.5,0000.0,0008.51,0002.51,0001.57
2021-11-11 19:21:00,,0825.2,4.99,0.00,25.1,24.0,00.0,34.1,26.8,10.3,0000.0,0008.23,0002.46,0001.56
2021-11-11 19:22:00,,0825.2,4.99,0.00,25.1,24.0,00.0,34.1,26.9,10.0,0000.0,0008.28,0002.49,0001.57
2021-11-11 19:23:00,,0825.1,5.01,0.00,25.1,24.1,00.0,34.1,26.9,10.4,0000.0,0008.63,0002.49,0001.57
2021-11-11 19:24:00,,0824.9,5.00,0.00,25.1,24.1,00.0,34.1,26.9,10.2,0000.0,0008.63,0002.41,0001.55
2021-11-11 19:25:00,,0824.9,5.00,0.00,25.2,24.2,00.0,34.1,27.0,09.9,0000.0,0008.08,0002.34,0001.53
2021-11-11 19:26:00,,0824.9,5.00,0.00,25.2,24.2,00.0,34.1,27.0,10.0,0000.0,0007.99,0002.31,0001.51
2021-11-11 19:27:00,,0825.0,4.99,0.00,25.2,24.2,00.0,34.1,27.0,10.4,0000.0,0007.62,0002.29,0001.49
2021-11-11 19:28:00,,0825.0,5.00,0.00,25.2,24.3,00.0,34.2,27.0,10.7,0000.0,0007.70,0002.32,0001.48
2021-11-11 19:29:00,,0824.9,5.01,0.00,25.2,24.3,00.0,34.2,27.0,10.7,0000.0,0007.58,0002.24,0001.46
2021-11-11 19:30:00,,0824.8,5.00,0.00,25.2,24.2,00.0,34.2,27.0,09.9,0000.0,0007.72,0002.28,0001.47
2021-11-11 19:31:00,,0824.7,5.00,0.00,25.2,24.2,00.0,34.2,27.0,09.6,0000.0,0006.98,0002.22,0001.44
2021-11-11 19:32:00,,0824.6,5.01,0.00,25.2,24.2,00.0,34.2,27.0,09.6,0000.0,0006.78,0002.15,0001.42
2021-11-11 19:33:00,,0824.7,5.01,0.00,25.2,24.2,00.0,34.2,27.0,09.5,0000.0,0006.57,0002.11,0001.39
2021-11-11 19:34:00,,0824.6,5.01,0.00,25.2,24.2,00.0,34.2,26.9,09.4,0000.0,0006.53,0002.08,0001.37
2021-11-11 19:35:00,,0824.8,4.99,0.00,25.2,24.2,00.0,34.2,26.9,09.5,0000.0,0006.70,0002.02,0001.33
2021-11-11 19:36:00,,0824.8,5.02,0.00,25.2,24.1,00.0,34.2,26.9,09.7,0000.0,0006.67,0001.99,0001.29
2021-11-11 19:37:00,,0824.8,4.99,0.00,25.2,24.1,00.0,34.2,27.0,09.8,0000.0,0006.39,0002.02,0001.28
2021-11-11 19:38:00,,0824.9,5.01,0.00,25.2,24.2,00.0,34.2,27.0,10.1,0000.0,0005.89,0002.01,0001.27
2021-11-11 19:39:00,,0825.0,4.99,0.00,25.3,24.2,00.0,34.2,27.1,10.5,0000.0,0005.65,0001.96,0001.26
2021-11-11 19:40:00,,0825.0,5.01,0.00,25.3,24.3,00.0,34.2,27.1,10.6,0000.0,0005.44,0001.89,0001.24
2021-11-11 19:41:00,,0824.9,5.00,0.00,25.3,24.3,00.0,34.3,27.1,10.4,0000.0,0005.40,0001.86,0001.23
2021-11-11 19:42:00,,0824.9,4.98,0.00,25.3,24.4,00.0,34.3,27.1,10.5,0000.0,0005.00,0001.79,0001.22
2021-11-11 19:43:00,,0824.8,5.02,0.00,25.3,24.4,00.0,34.3,27.2,10.5,0000.0,0004.97,0001.80,0001.23
2021-11-11 19:44:00,,0824.9,4.99,0.00,25.3,24.4,00.0,34.3,27.2,10.3,0000.0,0005.20,0001.85,0001.24
2021-11-11 19:45:00,,0824.9,4.99,0.00,25.4,24.5,00.0,34.3,27.2,10.2,0000.0,0004.66,0001.85,0001.25
2021-11-11 19:46:00,,0824.9,5.01,0.00,25.4,24.5,00.0,34.3,27.3,10.2,0000.0,0003.30,0001.86,0001.26
2021-11-11 19:47:00,,0824.9,5.00,0.00,25.4,24.5,00.0,34.3,27.2,10.4,0000.0,0003.39,0001.90,0001.28
2021-11-11 19:48:00,,0825.0,5.02,0.00,25.4,24.5,00.0,34.3,27.2,10.4,0000.0,0004.08,0001.89,0001.29
2021-11-11 19:49:00,,0825.0,5.00,0.00,25.4,24.5,00.0,34.3,27.2,10.0,0000.0,0005.38,0001.89,0001.28
2021-11-11 19:50:00,,0825.0,4.99,0.00,25.4,24.5,00.0,34.4,27.2,09.9,0000.0,0005.51,0001.83,0001.25
2021-11-11 19:51:00,,0824.7,5.01,0.00,25.4,24.5,00.0,34.4,27.3,09.7,0000.0,0006.71,0001.94,0001.23
2021-11-11 19:52:00,,0824.6,5.00,0.00,25.4,24.5,00.0,34.4,27.2,09.6,0000.0,0007.49,0001.92,0001.20
2021-11-11 19:53:00,,0824.5,4.99,0.00,25.4,24.5,00.0,34.4,27.2,09.6,0000.0,0008.23,0001.95,0001.19
2021-11-11 19:54:00,,0824.6,4.99,0.00,25.4,24.5,00.0,34.4,27.2,09.7,0000.0,0008.30,0001.99,0001.17
2021-11-11 19:55:00,,0824.7,5.00,0.00,25.4,24.5,00.0,34.4,27.1,09.7,0000.0,0008.45,0002.08,0001.16
2021-11-11 19:56:00,,0824.8,5.01,0.00,25.4,24.5,00.0,34.4,27.1,09.7,0000.0,0009.01,0002.07,0001.13
2021-11-11 19:57:00,,0824.9,5.00,0.00,25.4,24.5,00.0,34.4,27.1,09.7,0000.0,0009.35,0002.07,0001.11
2021-11-11 19:58:00,,0824.8,5.00,0.00,25.4,24.5,00.0,34.4,27.1,09.6,0000.0,0009.41,0002.07,0001.08
2021-11-11 19:59:00,,0824.7,4.99,0.00,25.4,24.4,00.0,34.4,27.0,09.5,0000.0,0009.34,0002.08,0001.04
